Weather reports worldwide

Advertisment
Hoyerswerda, Germany (10495): temperature & dewpoint: 06.12.2018 00:00:00 - 12.12.2018 00:00:00 (CET)Hoyerswerda, Germany (10495): temperature 5cm & temperature -5cm: 06.12.2018 00:00:00 - 12.12.2018 00:00:00 (CET)Hoyerswerda, Germany (10495): temperature -20cm & temperature -100cm: 06.12.2018 00:00:00 - 12.12.2018 00:00:00 (CET)Hoyerswerda, Germany (10495): wind speed & gusts: 06.12.2018 00:00:00 - 12.12.2018 00:00:00 (CET)Hoyerswerda, Germany (10495): wind direction: 06.12.2018 00:00:00 - 12.12.2018 00:00:00 (CET)Hoyerswerda, Germany (10495): reduced air pressure: 06.12.2018 00:00:00 - 12.12.2018 00:00:00 (CET)Hoyerswerda, Germany (10495): visibility: 06.12.2018 00:00:00 - 12.12.2018 00:00:00 (CET)Hoyerswerda, Germany (10495): sunshine duration: 06.12.2018 00:00:00 - 12.12.2018 00:00:00 (CET)Hoyerswerda, Germany (10495): precipitation: 06.12.2018 00:00:00 - 12.12.2018 00:00:00 (CET)
Date & Time tt [°C] td [°C] tt 5cm [°C] tt -5cm [°C] tt -20cm [°C] tt -100cm [°C] ff [km/h] ff [kn] fx [km/h] fx [kn] dd ppp [hPa] vv [km] sd [min] rr [mm]
12.12.2018 00:00:00 2,1 1,3 1,2 1,1 3,0 7,0 13 7 19 10 NNW 1018,3 53 0 0,0
11.12.2018 23:00:00 1,8 0,9 0,8 0,8 3,1 7,0 15 8 25 13 NNW 1017,9 70 0 0,1
11.12.2018 22:00:00 1,8 1,1 0,9 0,7 3,2 7,0 20 11 29 16 NNW 1017,5 11 0 1,0
11.12.2018 21:00:00 1,0 0,6 0,1 0,8 3,4 7,0 10 5 16 9 WNW 1017,2 14 0 1,2
11.12.2018 20:00:00 0,4 0,2 0,0 0,8 3,6 7,0 5 3 11 6 WSW 1017,0 6 0 0,7
11.12.2018 19:00:00 0,3 0,1 0,0 0,9 3,8 7,0 6 3 9 5 W 1016,9 5 0 1,8
11.12.2018 18:00:00 0,3 0,2 0,0 1,1 4,0 7,0 6 3 13 7 W 1016,6 3,5 0 1,6
11.12.2018 17:00:00 0,4 0,1 0,0 1,7 4,2 7,0 7 4 23 13 W 1016,3 4,5 0 0,9
11.12.2018 16:00:00 1,3 0,5 0,8 2,6 4,2 7,0 17 9 27 15 NW 1015,9 8 0 0,5
11.12.2018 15:00:00 2,2 1,3 1,9 3,2 4,3 7,0 18 10 27 14 WNW 1015,3 20 0 0,3
11.12.2018 14:00:00 2,8 1,9 2,6 3,4 4,3 7,0 18 10 27 15 NW 1014,5 8 0 0,2
11.12.2018 13:00:00 2,8 1,8 2,6 3,4 4,3 7,0 20 11 29 16 NW 1013,9 20 0 0,0
11.12.2018 12:00:00 2,8 1,7 2,5 3,3 4,2 7,0 20 11 45 25 NW 1013,4 70 0 0,1
11.12.2018 11:00:00 3,4 1,8 2,9 3,3 4,2 7,1 22 12 36 20 WNW 1012,7 34 0 0,3
11.12.2018 10:00:00 2,7 1,7 2,4 3,1 4,3 7,1 24 13 51 28 NW 1012,5 22 0 1,0
11.12.2018 09:00:00 3,0 2,0 2,6 3,1 4,3 7,1 27 14 42 23 WNW 1011,6 11 0 1,2
11.12.2018 08:00:00 3,2 1,9 2,6 3,1 4,3 7,1 32 17 49 27 W 1010,9 8 0 0,8
11.12.2018 07:00:00 3,6 2,3 2,9 3,2 4,3 7,1 25 14 40 22 W 1010,6 7 0 0,0
11.12.2018 06:00:00 3,7 2,1 2,9 3,2 4,3 7,1 25 14 40 21 W 1010,8 27 0 0,2
11.12.2018 05:00:00 3,7 1,9 3,0 3,1 4,3 7,1 26 14 42 23 W 1011,1 28 0 0,0
11.12.2018 04:00:00 3,7 1,6 3,2 3,1 4,3 7,1 22 12 39 21 W 1011,2 39 0 0,0
11.12.2018 03:00:00 3,6 1,5 2,8 3,1 4,3 7,1 21 12 36 20 W 1011,4 44 0 0,0
11.12.2018 02:00:00 3,5 1,9 2,8 3,0 4,4 7,1 23 12 37 20 W 1011,2 40 0 0,0
11.12.2018 01:00:00 3,2 2,0 2,6 3,0 4,4 7,1 26 14 40 22 W 1011,1 32 0 0,1
11.12.2018 00:00:00 2,7 1,6 2,2 2,9 4,4 7,1 29 15 44 24 W 1011,2 24 0 0,3
10.12.2018 23:00:00 3,3 1,2 2,7 3,0 4,5 7,1 29 16 52 28 W 1011,1 37 0 0,0
10.12.2018 22:00:00 3,4 0,9 2,9 2,9 4,5 7,1 31 17 44 24 W 1011,5 52 0 0,0
10.12.2018 21:00:00 3,2 0,7 2,8 3,0 4,6 7,1 32 18 46 25 W 1012,0 42 0 0,0
10.12.2018 20:00:00 3,3 0,6 2,5 3,0 4,7 7,1 29 16 45 24 W 1012,0 63 0 0,0
10.12.2018 19:00:00 3,3 0,6 2,3 3,0 4,8 7,1 27 14 46 25 W 1012,2 56 0 0,0
10.12.2018 18:00:00 4,2 0,0 3,4 3,1 4,8 7,1 29 16 45 25 W 1012,2 70 0 0,0
10.12.2018 17:00:00 4,5 -0,5 3,5 3,3 4,9 7,1 29 16 47 25 W 1012,2 55 0 0,0
10.12.2018 16:00:00 4,5 0,0 3,7 3,6 5,0 7,1 24 13 46 25 W 1011,9 55 0 0,0
10.12.2018 15:00:00 4,8 0,0 3,9 3,9 5,0 7,1 26 14 51 28 W 1011,7 56 2 0,0
10.12.2018 14:00:00 5,0 -0,1 5,0 4,0 5,0 7,1 39 21 58 31 WNW 1011,6 50 10 0,0
10.12.2018 13:00:00 4,8 0,2 4,0 4,4 5,0 7,1 36 19 56 31 W 1011,5 52 1 0,0
10.12.2018 12:00:00 5,1 0,9 5,0 4,4 5,0 7,1 30 16 51 28 W 1011,5 43 5 0,0
10.12.2018 11:00:00 4,7 0,9 4,3 4,0 5,0 7,1 30 16 46 25 W 1011,5 58 0 0,0
10.12.2018 10:00:00 4,8 1,3 4,5 3,8 5,0 7,1 29 16 52 28 W 1011,3 55 0 0,0
10.12.2018 09:00:00 4,7 1,3 4,1 3,6 5,1 7,1 29 15 46 25 W 1010,5 52 0 0,0
10.12.2018 08:00:00 4,6 1,4 3,4 3,6 5,1 7,1 30 16 54 29 W 1009,8 64 0 0,0
10.12.2018 07:00:00 4,6 1,3 3,5 3,6 5,2 7,1 35 19 58 31 W 1008,8 51 0 0,0
10.12.2018 06:00:00 4,8 1,6 4,0 3,6 5,3 7,1 29 16 50 27 W 1007,9 52 0 0,0
10.12.2018 05:00:00 4,7 1,1 3,3 3,6 5,5 7,1 34 19 55 30 W 1007,1 47 0 0,0
10.12.2018 04:00:00 5,2 1,8 3,8 4,2 5,5 7,1 36 19 61 33 W 1006,2 32 0 0,1
10.12.2018 03:00:00 5,5 2,0 4,9 4,4 5,6 7,1 37 20 66 35 W 1005,5 41 0 0,0
10.12.2018 02:00:00 5,4 2,6 4,3 4,4 5,7 7,1 33 18 61 33 W 1004,8 13 0 0,0
10.12.2018 01:00:00 5,9 2,2 5,1 4,5 5,8 7,0 36 20 61 33 W 1003,7 57 0 0,0
10.12.2018 00:00:00 6,0 3,0 4,7 4,8 5,9 7,0 30 16 51 27 W 1002,9 59 0 0,0
09.12.2018 23:00:00 6,3 3,5 4,9 5,1 5,9 7,0 30 16 50 27 W 1001,9 59 0 0,3
09.12.2018 22:00:00 6,1 4,5 5,2 5,3 6,0 7,0 30 16 45 24 W 1001,2 27 0 0,1
09.12.2018 21:00:00 6,5 4,1 5,4 5,4 6,0 7,0 34 19 51 28 W 1000,1 70 0 0,1
09.12.2018 20:00:00 6,5 4,3 5,4 5,4 6,0 7,0 29 16 49 27 W 999,1 26 0 0,0
09.12.2018 19:00:00 7,1 4,1 5,8 5,3 6,1 7,0 25 13 39 21 WSW 998,3 70 0 0,0
09.12.2018 18:00:00 7,0 4,1 6,0 5,2 6,2 7,0 20 11 29 16 WSW 997,4 70 0 0,0
09.12.2018 17:00:00 6,4 3,9 4,9 5,3 6,4 7,0 16 9 33 18 WSW 997,1 70 0 0,0
09.12.2018 16:00:00 6,1 3,8 4,6 5,8 6,5 7,0 21 11 37 20 W 996,3 70 0 0,2
09.12.2018 15:00:00 6,4 4,2 5,5 6,9 6,4 7,0 36 19 53 29 WNW 995,5 31 0 0,2
09.12.2018 14:00:00 9,0 4,0 8,4 7,4 6,3 7,0 39 21 63 34 W 994,0 70 0 0,0
09.12.2018 13:00:00 8,5 5,2 8,3 7,5 6,2 7,0 23 13 46 25 WSW 993,8 70 0 0,0
09.12.2018 12:00:00 8,4 5,0 8,0 7,3 6,0 7,0 36 19 56 31 WSW 993,7 45 4 0,0
09.12.2018 11:00:00 8,2 4,7 6,9 6,7 5,9 7,0 37 20 55 30 W 993,4 29 0 0,0
09.12.2018 10:00:00 8,2 4,4 7,8 6,1 5,8 7,0 35 19 53 29 WSW 992,9 70 0 0,0
09.12.2018 09:00:00 7,5 4,3 6,8 5,7 5,8 7,0 28 15 50 27 WSW 992,7 70 0 0,0
09.12.2018 08:00:00 7,3 5,2 6,1 5,7 5,8 7,0 29 16 44 24 WSW 992,0 70 0 0,0
09.12.2018 07:00:00 7,5 5,5 6,3 5,9 5,7 7,0 27 15 59 32 WSW 991,1 70 0 0,5
09.12.2018 06:00:00 8,8 5,4 7,2 5,8 5,6 7,0 34 18 52 28 WSW 990,7 29 0 0,0
09.12.2018 05:00:00 8,7 5,4 7,4 5,6 5,6 7,0 21 12 40 22 SW 991,1 70 0 0,0
09.12.2018 04:00:00 6,9 5,4 5,9 5,3 5,5 7,0 11 6 29 16 SSW 991,8 70 0 1,4
09.12.2018 03:00:00 6,5 5,4 5,7 5,1 5,5 6,9 16 9 28 15 S 993,1 11 0 1,9
09.12.2018 02:00:00 6,5 4,0 5,2 4,8 5,5 6,9 13 7 28 15 S 995,3 15 0 0,2
09.12.2018 01:00:00 7,0 2,9 6,3 4,5 5,5 6,9 13 7 29 15 S 997,0 70 0 0,0
09.12.2018 00:00:00 7,4 2,5 6,1 4,0 5,7 6,9 18 10 29 16 SSW 998,8 70 0 0,0
08.12.2018 23:00:00 7,5 2,6 5,4 4,5 5,8 6,9 16 9 39 21 SW 1000,1 70 0 0,0
08.12.2018 22:00:00 8,0 3,0 6,4 4,7 5,8 6,9 23 12 46 25 SW 1000,8 70 0 0,0
08.12.2018 21:00:00 7,8 3,4 6,6 5,1 5,9 6,9 28 15 45 24 WSW 1001,6 70 0 0,0
08.12.2018 20:00:00 7,9 3,5 6,4 5,2 5,9 6,9 26 14 47 26 WSW 1002,0 33 0 0,0
08.12.2018 19:00:00 7,2 3,7 6,0 5,2 6,0 6,9 27 14 42 23 WSW 1002,2 70 0 0,0
08.12.2018 18:00:00 6,7 4,0 5,7 5,3 6,0 6,9 26 14 41 22 SW 1002,5 70 0 0,2
08.12.2018 17:00:00 6,5 3,8 5,2 5,4 6,1 6,8 32 17 58 31 WSW 1003,1 24 0 0,4
08.12.2018 16:00:00 8,1 2,1 6,8 5,5 6,1 6,8 28 15 51 28 SW 1002,7 70 0 0,0
08.12.2018 15:00:00 8,5 2,2 7,6 6,1 6,1 6,8 28 15 51 28 WSW 1002,9 70 0 0,0
08.12.2018 14:00:00 8,7 2,2 8,2 6,3 6,0 6,8 27 15 52 28 WSW 1003,5 70 0 0,0
08.12.2018 13:00:00 8,4 2,3 7,6 6,3 5,9 6,8 26 14 52 28 WSW 1004,0 70 1 0,0
08.12.2018 12:00:00 8,5 1,7 8,4 5,9 5,8 6,8 22 12 46 25 SW 1004,5 70 9 0,0
08.12.2018 11:00:00 7,8 1,2 7,3 5,9 5,7 6,8 24 13 44 24 SW 1005,5 70 30 0,0
08.12.2018 10:00:00 7,3 1,2 7,2 4,5 5,8 6,7 25 14 46 25 SW 1006,1 53 29 0,0
08.12.2018 09:00:00 6,5 1,1 5,7 3,9 6,0 6,7 18 10 41 22 SW 1006,5 70 0 0,0
08.12.2018 08:00:00 5,9 1,2 4,2 3,7 6,3 6,7 23 12 37 20 SW 1006,3 70 0 0,0
08.12.2018 07:00:00 5,8 1,7 4,2 4,3 6,5 6,7 25 13 40 21 WSW 1006,5 70 0 0,0
08.12.2018 06:00:00 6,4 2,3 5,2 5,1 6,7 6,7 29 16 46 25 WSW 1006,0 70 0 0,0
08.12.2018 05:00:00 6,7 2,7 5,5 5,6 6,9 6,7 24 13 47 26 WSW 1004,6 70 0 0,0
08.12.2018 04:00:00 7,1 3,8 6,0 6,1 7,1 6,7 22 12 50 27 W 1003,0 70 0 0,0
08.12.2018 03:00:00 7,5 4,2 6,1 7,1 7,2 6,6 36 19 66 36 W 1002,0 70 0 0,1
08.12.2018 02:00:00 10,9 6,7 9,6 7,7 7,2 6,6 41 22 59 32 WSW 999,6 70 0 0,0
08.12.2018 01:00:00 10,9 6,6 8,9 7,6 7,2 6,6 26 14 37 20 WSW 999,2 55 0 0,0
08.12.2018 00:00:00 10,5 6,3 8,4 7,5 7,2 6,6 19 10 30 16 SW 999,2 70 0 0,0
07.12.2018 23:00:00 9,9 6,7 8,0 7,6 7,3 6,6 14 8 29 15 SSW 999,5 70 0 0,0
07.12.2018 22:00:00 9,9 7,5 8,5 8,1 7,3 6,6 14 8 24 13 SSW 1000,3 70 0 0,0
07.12.2018 21:00:00 9,9 8,6 8,8 8,4 7,3 6,6 18 10 33 18 SW 1001,0 25 0 1,7
07.12.2018 20:00:00 9,9 9,1 9,0 8,5 7,3 6,6 14 8 29 15 SW 1001,6 15 0 1,6
07.12.2018 19:00:00 10,2 8,9 9,2 8,5 7,3 6,6 10 5 25 13 S 1002,1 5 0 0,1
07.12.2018 18:00:00 10,8 8,8 9,6 8,7 7,3 6,6 10 5 22 12 SSW 1002,8 70 0 0,0
07.12.2018 17:00:00 10,7 9,1 9,6 8,9 7,2 6,6 8 4 29 15 S 1004,1 70 0 0,0
07.12.2018 16:00:00 11,2 9,7 10,1 9,3 7,1 6,6 17 9 30 16 SW 1005,2 27 0 0,0
07.12.2018 15:00:00 11,6 10,2 10,6 9,6 6,9 6,6 16 8 27 15 SW 1006,0 47 0 0,0
07.12.2018 14:00:00 11,8 10,4 10,8 9,7 6,7 6,6 15 8 29 16 SW 1006,9 19 0 0,0
07.12.2018 13:00:00 11,8 10,4 11,0 9,6 6,4 6,6 15 8 26 14 SW 1007,7 70 0 0,2
07.12.2018 12:00:00 11,7 10,6 10,9 9,1 6,2 6,6 16 9 26 14 SW 1008,9 32 0 0,1
07.12.2018 11:00:00 11,4 10,2 10,7 8,6 6,0 6,6 17 9 28 15 SW 1009,9 70 0 0,0
07.12.2018 10:00:00 10,9 10,3 10,2 8,1 5,8 6,6 15 8 24 13 SW 1010,6 27 0 0,9
07.12.2018 09:00:00 10,4 9,9 9,8 7,7 5,6 6,6 13 7 20 11 SW 1011,1 8 0 1,0
07.12.2018 08:00:00 10,4 9,9 9,6 7,6 5,4 6,6 10 5 28 15 SSW 1011,5 4,5 0 0,2
07.12.2018 07:00:00 10,8 9,7 9,7 7,3 5,2 6,6 19 10 35 19 SW 1011,6 12 0 0,1
07.12.2018 06:00:00 10,8 7,6 9,9 6,8 5,0 6,6 11 6 23 12 SSW 1012,0 50 0 0,0
07.12.2018 05:00:00 11,0 7,5 10,1 6,6 4,8 6,6 16 9 29 16 SW 1012,5 54 0 0,0
07.12.2018 04:00:00 11,0 7,2 10,0 6,2 4,6 6,6 19 10 29 16 SW 1013,2 53 0 0,0
07.12.2018 03:00:00 10,2 6,8 9,2 5,7 4,5 6,6 14 7 23 13 SW 1013,9 42 0 0,0
07.12.2018 02:00:00 9,0 6,1 8,1 5,2 4,3 6,6 12 7 20 11 SSW 1014,8 32 0 0,0
07.12.2018 01:00:00 7,9 5,6 7,1 5,0 4,2 6,6 9 5 14 7 S 1015,3 25 0 0,0
07.12.2018 00:00:00 8,0 5,8 7,1 4,9 4,1 6,6 8 4 16 9 S 1016,0 27 0 0,0
06.12.2018 23:00:00 7,8 5,9 7,0 4,7 3,9 6,6 10 6 19 11 SSW 1016,3 21 0 0,0
06.12.2018 22:00:00 7,1 5,7 6,5 4,4 3,8 6,7 10 5 18 10 SSW 1016,5 16 0 0,0
06.12.2018 21:00:00 6,6 5,2 6,0 4,0 3,7 6,7 10 6 18 10 SSW 1016,9 15 0 0,0
06.12.2018 20:00:00 5,5 3,6 4,8 3,6 3,6 6,7 7 4 14 7 S 1017,4 16 0 0,0
06.12.2018 19:00:00 5,1 2,5 4,8 3,5 3,5 6,7 7 4 22 12 S 1017,5 21 0 0,0
06.12.2018 18:00:00 4,6 2,1 4,3 3,3 3,5 6,7 12 6 26 14 S 1017,6 19 0 0,0
06.12.2018 17:00:00 4,5 1,2 4,2 3,3 3,4 6,7 16 9 33 18 S 1017,7 24 0 0,0
06.12.2018 16:00:00 4,8 0,7 4,5 3,4 3,2 6,7 21 11 40 21 S 1017,6 30 0 0,0
06.12.2018 15:00:00 5,3 1,0 4,9 3,6 3,1 6,7 13 7 32 17 S 1017,6 37 0 0,0
06.12.2018 14:00:00 5,5 0,6 5,4 3,4 2,8 6,7 14 8 30 16 S 1017,3 40 0 0,0
06.12.2018 13:00:00 5,0 -0,5 4,7 2,8 2,6 6,8 15 8 24 13 S 1018,2 49 0 0,0
06.12.2018 12:00:00 4,6 -1,4 4,5 2,4 2,4 6,8 13 7 31 17 S 1018,7 49 3 0,0
06.12.2018 11:00:00 4,7 -2,1 4,8 1,2 2,3 6,8 19 10 38 21 S 1018,7 43 4 0,0
06.12.2018 10:00:00 4,2 -2,5 3,7 0,4 2,3 6,8 18 10 30 16 S 1019,0 50 0 0,0
06.12.2018 09:00:00 4,0 -3,2 3,2 0,3 2,4 6,8 14 7 26 14 SSE 1019,0 68 0 0,0
06.12.2018 08:00:00 3,6 -3,2 2,6 0,3 2,4 6,8 15 8 29 16 SSE 1018,9 70 0 0,0
06.12.2018 07:00:00 3,5 -1,7 2,7 0,3 2,4 6,8 16 9 35 19 SSE 1019,0 70 0 0,0
06.12.2018 06:00:00 3,5 -2,3 2,4 0,2 2,4 6,8 16 8 31 17 SSE 1019,7 52 0 0,0
06.12.2018 05:00:00 3,6 -3,3 2,6 0,2 2,5 6,8 18 10 34 19 SSE 1020,8 47 0 0,0
06.12.2018 04:00:00 3,4 -3,5 2,3 0,2 2,5 6,8 9 5 28 15 S 1021,8 56 0 0,0
06.12.2018 03:00:00 3,5 -3,0 2,2 0,2 2,6 6,8 13 7 29 16 SSE 1021,9 51 0 0,0
06.12.2018 02:00:00 2,5 -2,0 1,3 0,1 2,7 6,9 13 7 25 14 SE 1022,2 49 0 0,0
06.12.2018 01:00:00 2,9 -1,3 1,2 0,1 2,7 6,9 17 9 32 18 SE 1022,8 39 0 0,0
06.12.2018 00:00:00 1,8 -1,5 0,4 0,2 2,8 6,9 13 7 20 11 SE 1024,0 34 0 0,0

tt = temperature
td = dewpoint
tt 5cm = temperature 5cm
tt -5cm = temperature -5cm
tt -20cm = temperature -20cm
tt -100cm = temperature -100cm
ff = wind speed
fx = gusts
dd = wind direction
ppp = reduced air pressure
vv = visibility
sd = sunshine duration
rr = precipitation

Next stations